Vorticity
6 5 6 7 10 9 6 6 7 7 9 8 5 6 8 8 6 6 7 6 7 7 7 11 11 5 3 6 6 5 5 6 7 7 7 6 6 6 6 5 3 2 3 4 5 5 6 7 7 8 9 6 4 8 12 11 9 8 7 5 1 3 7 5 7 11 8 10 17 14 11 15 14 12 14 14 11 11 11 10 10 14 20 21 19
7 7 8 9 11 9 6 7 9 9 8 6 5 6 6 7 6 6 6 6 8 8 8 11 9 2 3 8 6 4 6 7 7 6 6 7 7 7 7 8 12 17 17 14 12 12 12 13 12 11 11 8 4 9 14 9 7 8 6 4 3 4 7 4 3 10 13 11 13 14 12 14 15 12 12 13 12 10 10 10 10 9 12 17 19
7 10 11 12 12 10 10 10 9 8 6 5 8 6 3 5 8 7 6 7 8 8 10 11 4 0 7 10 6 5 7 8 7 6 5 8 9 8 10 14 18 22 21 15 12 14 17 17 16 14 11 8 6 10 13 8 5 8 6 4 4 4 6 5 2 7 14 13 11 13 13 13 15 14 12 12 12 12 10 9 10 10 8 10 14
6 7 9 11 13 13 13 12 11 8 5 6 8 4 1 4 8 7 7 8 9 10 12 9 2 3 9 8 5 6 7 8 8 7 6 8 9 7 7 7 8 7 6 6 10 20 27 24 19 17 12 7 8 11 11 6 5 8 7 4 4 5 6 6 4 5 10 12 11 12 13 13 14 14 12 12 12 12 12 11 10 11 11 10 10
2 3 4 6 10 12 10 12 15 12 6 6 6 4 2 5 8 9 9 9 11 10 9 6 2 5 8 5 5 5 5 8 8 6 8 10 7 4 5 9 15 15 11 8 7 13 22 24 21 18 12 7 9 10 7 5 5 7 7 5 5 7 8 7 6 6 7 9 12 14 13 12 13 12 11 11 12 11 12 13 12 12 12 12 11
3 4 3 2 7 12 11 9 11 13 9 6 7 7 4 4 9 11 10 11 10 5 4 4 4 7 8 4 4 5 5 8 8 7 10 8 1 2 11 18 22 20 8 -2 -4 -2 8 19 22 17 10 7 8 9 6 4 5 7 8 8 7 8 10 9 6 6 7 8 12 16 15 11 11 11 10 11 12 10 10 11 12 14 14 13 13
7 7 3 3 2 3 9 13 14 13 8 7 10 7 2 6 13 13 11 11 7 2 6 9 5 7 8 4 4 6 6 7 8 8 9 4 -5 -1 12 18 17 12 -1 -8 -1 6 9 14 18 14 9 9 8 6 6 5 6 8 9 8 8 9 10 8 6 7 8 8 12 17 16 13 10 9 10 10 11 11 11 10 9 11 15 16 16
7 4 0 3 0 1 15 22 21 10 -2 5 13 5 3 8 7 7 9 9 6 5 9 8 3 4 7 5 6 7 6 8 8 7 9 4 -7 -5 6 10 9 9 7 7 15 22 18 12 12 13 11 11 8 5 6 7 7 9 9 8 9 10 9 6 5 8 9 9 12 16 16 13 11 10 10 9 8 9 11 12 10 9 11 12 15
0 -2 -1 6 7 15 23 20 19 11 -1 8 10 -1 4 9 1 4 8 7 8 9 8 7 4 4 5 5 6 7 7 9 7 6 8 6 -3 -7 -2 3 6 9 15 16 16 22 25 16 9 12 13 10 8 5 3 4 4 5 6 8 9 9 8 6 5 8 10 10 12 14 15 14 12 12 11 10 9 7 6 10 12 11 13 11 8
0 0 9 22 23 20 15 8 16 17 7 7 2 -8 1 5 1 8 9 4 7 9 10 10 5 3 5 4 6 8 6 7 8 7 6 6 4 -3 -8 -3 3 6 12 12 7 15 28 23 11 7 7 7 8 6 0 1 4 3 3 5 7 8 8 6 6 9 11 12 13 14 15 14 13 13 13 12 11 8 6 8 10 10 14 15 9
9 4 13 31 30 21 17 14 18 17 7 3 2 3 9 6 5 14 11 4 4 6 10 9 2 3 5 3 6 7 7 8 8 7 8 10 11 -0 -10 -4 4 6 11 9 4 14 29 29 15 2 -2 3 10 11 4 -1 -0 1 5 9 9 8 7 7 7 10 13 14 13 13 14 14 13 13 14 14 13 9 8 10 11 10 12 17 16
8 4 8 17 13 18 29 23 16 19 17 10 11 13 10 7 13 16 8 3 4 7 8 3 1 5 4 2 6 7 7 8 7 8 12 14 10 -2 -6 -0 4 7 10 5 6 19 28 26 15 3 -2 1 10 16 11 2 -0 5 10 12 9 6 7 8 9 12 14 14 12 13 15 13 12 14 14 14 13 11 9 10 11 11 11 16 20
6 5 10 13 8 19 35 27 17 21 17 8 14 20 13 9 8 2 -0 8 12 8 5 2 4 7 3 2 7 7 6 8 9 11 13 11 5 -3 -1 4 4 7 9 6 10 21 24 19 14 9 5 4 10 16 9 1 6 12 12 9 6 6 9 12 13 15 15 13 12 14 15 12 12 14 13 13 13 11 11 11 8 10 13 16 19
8 7 14 15 6 13 30 29 21 20 10 -1 4 9 2 -1 -3 -10 -4 12 11 1 1 5 7 6 4 3 5 6 7 9 11 12 8 3 -1 -3 3 7 4 7 11 8 10 15 16 17 16 13 11 9 10 11 6 6 13 15 10 6 5 8 13 15 15 15 14 11 11 16 16 13 14 13 10 12 13 12 12 10 6 10 14 14 16
7 12 16 13 9 11 18 16 9 13 17 14 12 5 -1 16 37 32 19 13 5 -1 5 8 7 9 7 4 5 7 7 11 14 10 2 -4 -5 2 7 5 4 11 11 8 11 13 14 12 9 12 15 14 10 10 12 16 18 16 10 5 5 10 15 16 15 14 12 10 13 17 16 13 13 11 9 10 12 12 12 10 7 12 16 15 19
5 12 13 13 12 7 6 6 5 10 16 21 27 24 19 29 34 15 2 5 5 5 9 8 9 12 7 4 8 7 6 12 12 3 -3 -5 -2 5 5 2 9 15 11 9 10 9 9 9 12 21 24 17 13 15 16 16 15 14 11 4 4 12 17 16 14 13 11 10 13 16 15 12 10 9 10 11 11 10 11 10 9 13 17 16 21
3 9 12 12 9 4 8 11 10 20 30 31 30 25 20 19 -1 -26 -14 13 13 6 8 8 9 11 7 8 12 9 7 8 4 -2 -2 -0 3 6 3 7 16 14 7 6 5 8 17 20 22 26 18 6 8 10 7 8 13 15 11 4 6 15 19 16 14 12 9 10 14 14 13 11 8 10 13 11 10 11 10 9 7 8 15 18 27
3 7 10 11 7 7 12 10 9 24 33 29 25 16 9 13 4 -8 5 19 10 4 10 11 11 12 11 11 11 10 7 3 -1 -0 2 4 6 5 4 13 17 8 3 4 8 22 29 16 7 8 -2 -7 3 3 -4 1 13 17 13 7 8 15 19 16 12 10 9 11 13 13 11 9 8 12 14 10 10 12 9 7 6 5 13 19 31
5 6 9 11 8 7 11 12 14 17 12 16 34 32 16 16 19 15 15 15 11 13 15 12 11 14 16 15 10 7 4 -3 -3 2 4 6 6 4 9 18 14 4 4 7 16 31 26 6 2 8 1 -1 5 0 -3 9 21 22 13 7 11 20 23 18 12 10 9 11 14 13 10 8 10 14 13 10 12 11 5 4 3 4 12 16 27
7 8 9 10 9 9 12 13 13 12 9 17 29 20 10 19 23 12 6 7 10 15 14 13 15 16 17 17 11 5 0 -6 -4 4 6 5 4 6 16 18 6 1 7 9 12 21 19 11 9 7 4 7 4 -2 3 17 24 20 10 5 11 18 17 14 12 11 10 12 15 13 9 10 14 14 12 11 13 8 2 2 0 2 11 15 22
14 17 14 12 11 10 11 12 11 10 10 16 23 21 22 27 15 -5 -8 -1 3 2 1 9 19 21 18 15 8 3 -1 -6 -3 5 6 4 6 11 14 8 1 5 10 8 7 11 17 20 16 9 12 16 10 7 14 19 20 17 10 6 9 11 9 9 11 11 10 14 16 12 10 12 14 12 12 13 12 5 1 2 1 1 9 17 23
20 18 12 10 9 7 9 9 8 12 19 26 31 26 16 8 -4 -14 -10 -2 -1 -5 -6 7 23 25 17 10 4 -0 -3 -4 -0 5 6 6 9 10 7 5 7 10 8 7 9 14 21 26 23 18 18 16 14 17 20 20 22 22 17 13 13 13 13 13 11 9 11 17 17 11 10 13 12 11 13 13 10 5 1 1 3 2 7 19 25
21 16 11 10 8 8 11 8 6 15 28 32 27 15 8 5 -5 -15 -11 -6 -8 -6 3 16 26 22 11 6 4 -2 -7 -5 1 6 8 9 9 7 8 10 10 9 8 9 13 19 23 22 15 12 13 14 16 16 14 14 18 21 20 19 17 16 18 17 12 10 14 18 15 10 11 13 11 12 14 12 8 5 2 2 3 4 9 20 24
16 15 12 11 10 8 8 7 6 11 22 33 34 30 32 24 -6 -22 -11 -5 -10 -0 19 27 25 18 10 5 -2 -8 -8 -0 7 10 10 9 7 8 12 13 9 9 10 12 16 21 20 14 9 9 11 12 13 12 9 10 14 18 20 19 17 17 19 17 12 12 16 17 13 10 11 12 11 13 14 12 8 5 3 3 3 5 12 21 24
11 11 8 9 8 7 7 8 8 9 19 34 35 23 15 3 -18 -18 -1 -2 -7 11 28 26 20 14 4 -5 -9 -6 3 11 13 11 10 9 9 11 13 10 8 10 11 15 21 22 17 11 7 6 5 6 11 13 11 9 12 17 20 20 18 17 17 15 13 14 17 16 11 9 9 11 12 14 13 10 7 5 4 3 3 6 15 22 26
8 6 7 8 7 8 10 9 9 10 13 23 28 17 2 -9 -11 -1 4 -5 -1 19 25 15 6 -2 -11 -10 -2 8 15 15 12 10 11 12 12 12 10 7 9 12 15 20 22 17 13 10 6 4 5 6 9 12 10 8 12 17 20 20 17 15 15 15 14 15 18 15 9 7 8 10 13 13 11 9 6 5 5 4 5 10 17 24 31
7 8 11 13 11 11 11 8 8 10 7 12 24 21 6 -4 -3 -1 -3 -2 13 24 16 -1 -12 -15 -8 6 15 17 15 13 11 13 14 12 11 10 8 9 12 15 20 22 18 11 9 9 8 10 10 6 5 9 10 10 14 17 17 16 14 12 12 13 13 16 18 13 7 7 8 10 12 13 10 8 6 6 6 5 7 12 19 27 35
12 12 11 9 7 7 8 7 7 6 6 13 22 19 9 2 -2 -5 3 18 23 11 -5 -13 -11 -1 14 20 18 15 13 12 13 13 11 9 10 10 9 10 15 19 21 19 11 5 7 11 13 13 8 3 5 9 10 11 14 16 15 14 12 11 11 10 12 18 19 11 6 7 9 10 12 12 9 9 8 7 7 6 7 12 20 30 39
10 9 8 9 9 7 6 6 5 6 12 20 23 17 5 -0 2 10 18 17 4 -7 -6 2 11 19 21 17 14 15 15 13 11 10 9 9 10 9 10 14 19 21 19 13 7 5 10 15 15 13 9 7 8 10 10 11 14 15 15 15 14 13 12 12 16 20 17 9 5 8 10 11 12 11 10 9 8 6 7 7 7 12 20 30 38
7 8 8 6 5 3 4 7 13 20 25 26 25 22 16 13 16 14 2 -7 -5 4 12 14 16 19 19 18 18 17 13 10 9 8 9 10 9 10 15 20 21 19 14 9 6 9 14 16 14 12 11 11 11 11 11 12 15 17 16 15 17 19 17 16 18 20 15 7 4 8 11 11 11 11 10 9 8 7 7 6 8 13 20 27 34
7 6 5 6 13 20 21 22 29 36 32 22 16 12 8 5 -1 -10 -12 -1 12 14 9 12 20 25 23 18 12 6 4 6 9 10 10 10 11 16 21 21 18 15 10 7 8 12 15 14 12 12 12 12 11 12 12 13 17 17 12 11 18 25 22 19 19 18 11 5 5 9 11 11 11 11 10 9 8 7 6 6 9 13 16 22 30
10 10 12 18 25 23 13 9 13 16 10 2 -3 -6 -6 -4 -2 1 9 16 13 9 14 27 29 20 9 2 -1 1 6 10 12 12 11 13 17 22 21 17 14 11 9 8 11 13 14 12 11 12 12 12 12 12 12 13 17 15 8 5 12 21 21 17 17 16 10 6 7 9 10 11 10 10 10 9 8 7 6 7 10 13 15 20 28
9 8 6 5 2 -3 -3 1 5 1 -5 -6 -3 1 7 11 13 15 16 13 12 19 27 24 9 -6 -9 -4 4 10 14 14 14 12 12 16 21 20 16 13 12 10 9 9 12 13 13 12 12 12 12 11 11 11 12 14 16 15 9 4 8 17 20 15 13 14 11 9 9 10 10 11 9 9 10 9 7 8 7 6 10 12 13 17 28
3 2 1 -0 -1 1 6 9 7 4 4 8 11 15 18 17 13 12 13 14 16 20 16 2 -12 -14 -6 5 12 13 14 14 13 11 14 19 20 16 13 12 11 9 9 11 13 14 13 13 12 12 11 11 11 12 13 14 14 15 14 10 11 19 21 15 12 13 11 10 11 11 10 10 9 9 11 9 7 8 7 6 8 10 12 16 27
6 9 11 11 12 12 11 10 10 10 11 11 11 13 14 12 11 13 14 12 9 8 5 -4 -10 -6 4 10 11 10 11 12 12 14 18 20 17 15 14 12 9 8 10 12 14 14 13 13 13 13 12 12 13 15 16 15 14 15 17 16 16 19 20 16 14 14 12 12 12 11 10 10 9 9 11 9 8 8 6 5 7 7 11 17 21
12 13 13 13 13 12 11 10 9 8 8 9 11 13 12 10 10 12 11 6 2 2 3 0 -0 5 11 12 10 10 11 13 16 19 21 19 18 18 16 10 8 9 12 13 15 14 14 14 14 13 14 15 18 21 19 15 15 16 17 17 18 20 18 15 14 14 13 13 12 11 11 11 9 9 10 8 8 8 5 6 7 6 9 14 15
10 12 14 14 12 10 8 7 9 14 17 17 15 14 12 10 9 7 4 2 1 3 7 7 9 11 11 10 11 12 14 18 21 21 20 20 20 19 13 7 8 12 14 15 15 14 14 14 14 15 16 17 22 25 20 17 18 18 14 13 16 19 18 15 13 14 13 12 12 12 11 11 10 10 9 8 7 8 6 5 7 7 8 10 13
12 12 13 11 9 7 8 12 18 19 14 9 8 9 12 14 15 12 10 9 8 8 9 9 10 11 12 12 14 16 19 22 21 19 19 19 17 13 8 8 11 14 14 15 14 13 13 13 14 15 14 14 17 20 18 17 19 17 11 8 10 14 15 15 13 12 12 12 12 11 10 10 10 9 8 8 7 7 7 6 5 7 9 7 9
11 10 7 5 5 8 12 15 12 3 -4 -0 7 10 11 14 16 15 12 10 8 8 10 11 13 15 15 15 18 20 22 20 18 18 17 14 10 9 10 11 13 14 14 14 13 12 12 13 14 14 12 10 11 12 11 12 15 13 8 5 5 7 10 12 11 11 10 10 9 9 9 10 9 8 8 8 7 6 7 7 6 6 9 9 7
6 7 7 7 9 13 16 17 13 8 9 14 15 13 12 13 11 9 7 8 10 13 14 15 15 15 17 21 23 23 21 18 16 14 11 8 9 11 12 13 14 13 13 13 12 10 11 13 14 14 13 11 12 12 11 11 12 11 9 7 5 6 8 9 9 9 9 9 9 9 9 9 9 9 7 7 8 7 6 7 8 6 7 9 8
14 12 12 14 15 15 14 12 11 13 14 12 8 8 10 9 7 7 10 13 15 15 14 15 18 21 24 25 23 19 17 15 12 10 9 10 12 12 13 14 14 12 12 12 12 11 12 13 14 14 14 14 14 14 14 14 13 14 14 13 11 11 12 11 10 9 9 9 9 9 10 11 10 11 9 8 9 9 7 7 9 8 7 9 8
9 11 17 19 18 14 11 10 10 11 9 6 5 8 10 10 11 14 16 15 14 15 17 21 24 23 21 18 15 13 12 10 9 10 11 12 12 13 14 14 12 11 12 13 12 11 13 14 14 13 13 13 14 14 14 14 14 15 16 15 14 15 16 15 13 10 9 10 9 8 9 10 9 10 10 9 8 9 9 9 9 8 7 8 8
14 19 23 18 11 8 9 12 15 14 10 8 9 12 14 15 15 14 13 13 16 21 23 22 18 14 11 10 10 10 10 10 10 11 10 11 13 14 13 12 12 13 13 13 12 13 14 14 14 13 12 13 13 12 12 12 12 13 15 14 13 15 16 16 16 13 11 10 10 8 7 8 8 8 9 8 8 9 9 9 9 8 8 8 8
20 21 17 10 8 11 14 16 14 10 7 9 14 17 17 15 13 13 16 20 24 23 19 13 9 8 9 10 10 10 10 10 10 11 12 14 15 14 14 14 14 14 14 14 14 15 14 14 13 12 11 12 13 12 11 12 11 12 13 13 12 12 12 13 15 15 14 12 12 10 8 7 8 8 8 7 7 8 8 9 9 8 8 9 8
11 7 5 6 11 15 15 11 8 7 11 17 19 17 14 13 15 19 23 24 20 14 9 7 9 11 11 10 10 11 10 11 12 12 14 15 15 15 16 17 16 15 15 15 14 15 16 15 13 12 11 12 12 11 11 11 10 10 11 11 11 11 10 9 9 10 11 12 12 12 11 9 8 9 9 8 8 7 8 9 9 8 8 9 8
7 4 5 10 14 17 18 19 19 20 21 20 16 14 15 18 21 23 21 16 10 7 8 11 12 11 10 11 11 11 11 11 12 12 13 14 15 16 17 18 18 17 16 14 15 16 15 14 13 12 11 11 11 10 10 9 9 10 10 9 9 9 9 9 9 7 7 8 8 8 10 10 9 9 9 9 9 8 8 9 9 9 9 9 8
9 9 11 12 13 15 20 23 21 19 17 16 16 17 19 19 17 15 11 8 8 10 12 12 11 10 10 10 10 10 11 12 12 13 15 15 15 17 18 19 19 18 16 16 16 15 14 13 13 12 11 11 11 11 11 10 10 10 10 9 10 9 8 9 9 9 8 9 8 8 9 9 9 8 8 9 10 10 9 9 9 9 9 9 8
12 16 19 21 21 21 19 16 15 16 18 18 18 18 16 14 12 10 10 11 12 13 11 10 10 11 13 14 14 15 15 15 15 17 18 16 16 16 18 18 17 16 15 15 14 13 13 13 12 11 11 11 11 11 12 11 11 10 10 9 9 9 9 9 10 10 10 10 10 10 10 10 9 8 7 8 10 11 10 10 10 10 10 10 9
17 20 20 20 20 19 15 13 14 16 16 15 14 13 12 12 12 12 12 12 11 10 10 13 16 18 18 18 17 17 17 17 16 17 19 18 16 14 13 13 13 13 12 11 12 12 11 11 11 11 11 12 11 11 11 11 9 9 10 10 10 11 12 13 13 13 12 12 12 12 13 13 13 11 10 10 11 12 12 12 11 10 10 10 9
16 16 13 12 14 14 14 15 16 15 14 13 12 10 10 12 12 12 10 10 11 14 17 19 18 16 14 13 14 15 17 18 18 17 19 19 17 14 13 11 10 10 10 10 10 10 10 10 11 12 11 11 11 11 10 10 11 11 12 14 14 14 15 15 15 16 17 16 16 15 15 17 18 17 14 13 12 13 13 13 12 12 11 11 10
21 21 22 24 26 25 23 21 18 15 13 11 10 10 12 13 11 10 11 15 19 20 18 14 11 10 10 12 13 15 17 19 19 19 20 20 18 16 15 13 11 11 12 12 11 12 12 12 12 12 11 11 11 11 11 13 15 15 16 16 16 17 17 18 19 19 20 20 20 19 18 18 19 19 18 15 13 13 13 13 13 12 12 11 11
Height
5886 5886 5885 5885 5884 5883 5883 5882 5882 5881 5880 5878 5877 5876 5875 5873 5873 5873 5872 5871 5870 5869 5868 5868 5867 5866 5866 5865 5864 5863 5862 5861 5859 5858 5856 5854 5853 5851 5849 5847 5845 5843 5840 5838 5836 5835 5833 5831 5829 5828 5827 5825 5822 5820 5817 5815 5813 5811 5810 5808 5806 5804 5803 5802 5801 5800 5798 5796 5793 5790 5788 5787 5786 5784 5784 5783 5781 5779 5779 5778 5778 5777 5777 5778 5779
5884 5883 5883 5882 5881 5880 5879 5879 5878 5877 5876 5875 5873 5872 5871 5870 5870 5870 5869 5868 5867 5866 5865 5865 5864 5863 5862 5861 5861 5860 5858 5857 5855 5853 5852 5850 5849 5848 5845 5843 5840 5838 5835 5833 5832 5830 5829 5827 5825 5824 5822 5820 5818 5816 5814 5811 5809 5807 5805 5804 5802 5800 5798 5797 5796 5795 5794 5791 5788 5786 5783 5783 5781 5780 5779 5779 5777 5775 5774 5773 5773 5772 5772 5772 5772
5882 5881 5880 5879 5878 5877 5876 5875 5875 5874 5872 5871 5870 5869 5868 5867 5868 5868 5866 5865 5864 5863 5862 5862 5861 5860 5859 5858 5857 5856 5854 5853 5851 5849 5847 5846 5845 5843 5841 5839 5836 5833 5831 5829 5827 5826 5824 5822 5820 5819 5818 5816 5814 5812 5810 5807 5805 5803 5801 5799 5798 5796 5794 5792 5791 5790 5789 5787 5784 5781 5779 5777 5776 5775 5774 5774 5773 5771 5770 5769 5768 5767 5766 5766 5766
5878 5878 5877 5876 5874 5873 5872 5871 5871 5870 5869 5867 5865 5864 5864 5864 5865 5865 5863 5862 5861 5860 5860 5859 5858 5857 5856 5855 5854 5852 5851 5849 5847 5845 5844 5843 5842 5840 5838 5836 5833 5830 5828 5826 5824 5821 5819 5817 5816 5815 5813 5811 5809 5807 5805 5803 5801 5799 5797 5795 5793 5791 5789 5787 5785 5784 5784 5782 5780 5778 5775 5772 5771 5769 5768 5768 5768 5766 5765 5764 5763 5762 5761 5760 5760
5875 5874 5873 5872 5871 5869 5868 5867 5867 5866 5864 5863 5861 5860 5861 5861 5861 5862 5861 5859 5858 5857 5857 5856 5855 5854 5853 5852 5850 5849 5848 5846 5844 5842 5841 5840 5839 5837 5835 5832 5830 5827 5825 5822 5820 5817 5815 5813 5811 5810 5809 5807 5805 5803 5801 5799 5797 5795 5793 5791 5788 5786 5784 5782 5780 5778 5777 5776 5775 5773 5770 5767 5766 5763 5761 5762 5763 5761 5760 5759 5758 5756 5755 5755 5754
5872 5871 5870 5868 5866 5864 5863 5862 5861 5860 5859 5858 5857 5857 5857 5858 5858 5859 5858 5856 5854 5854 5853 5852 5851 5851 5850 5848 5847 5846 5844 5843 5841 5839 5838 5837 5836 5834 5832 5829 5826 5824 5821 5819 5816 5813 5811 5809 5807 5805 5804 5803 5800 5798 5796 5794 5792 5790 5788 5786 5784 5782 5779 5777 5774 5772 5771 5770 5769 5769 5766 5762 5760 5758 5755 5756 5757 5756 5755 5754 5753 5750 5749 5749 5748
5869 5868 5866 5863 5861 5860 5856 5853 5852 5853 5853 5853 5854 5854 5855 5855 5855 5855 5853 5852 5850 5850 5849 5848 5848 5847 5846 5845 5844 5842 5840 5839 5837 5835 5834 5833 5832 5830 5828 5825 5823 5821 5818 5815 5812 5809 5807 5805 5803 5801 5800 5798 5796 5794 5791 5789 5787 5785 5783 5781 5779 5777 5774 5772 5769 5767 5765 5764 5763 5762 5761 5758 5755 5752 5750 5749 5750 5749 5749 5749 5748 5745 5743 5742 5741
5866 5864 5861 5858 5855 5851 5847 5847 5850 5851 5850 5851 5851 5852 5852 5851 5851 5850 5849 5848 5847 5846 5845 5844 5844 5844 5843 5841 5839 5837 5836 5834 5832 5831 5830 5829 5828 5826 5824 5822 5819 5817 5814 5811 5808 5805 5802 5800 5798 5797 5795 5793 5791 5789 5787 5785 5782 5780 5778 5776 5774 5771 5769 5766 5764 5761 5759 5757 5757 5756 5755 5753 5750 5747 5745 5744 5743 5742 5742 5741 5741 5740 5738 5736 5734
5863 5860 5856 5851 5845 5842 5843 5847 5852 5852 5849 5848 5848 5847 5847 5846 5845 5845 5845 5844 5843 5842 5841 5840 5840 5840 5839 5837 5835 5833 5832 5830 5828 5826 5825 5824 5823 5822 5820 5817 5814 5812 5809 5806 5803 5800 5797 5796 5794 5792 5791 5789 5786 5784 5782 5780 5778 5775 5773 5771 5768 5766 5763 5761 5758 5756 5753 5751 5750 5749 5748 5747 5744 5742 5740 5738 5736 5736 5735 5734 5733 5732 5731 5731 5728
5858 5855 5851 5847 5844 5844 5845 5847 5849 5848 5846 5844 5842 5842 5842 5840 5840 5841 5840 5839 5839 5839 5837 5836 5836 5835 5834 5833 5831 5829 5828 5826 5825 5823 5821 5819 5818 5817 5815 5812 5809 5806 5803 5800 5798 5795 5793 5791 5790 5788 5786 5784 5781 5779 5776 5774 5772 5770 5768 5765 5762 5760 5758 5755 5753 5750 5748 5746 5744 5742 5741 5741 5739 5736 5734 5732 5730 5729 5728 5726 5726 5725 5724 5724 5723
5853 5850 5848 5848 5848 5847 5845 5845 5844 5841 5839 5838 5837 5837 5836 5836 5836 5836 5836 5835 5835 5834 5833 5832 5831 5830 5829 5828 5827 5825 5824 5822 5820 5819 5817 5815 5813 5811 5809 5806 5803 5800 5798 5795 5792 5790 5788 5787 5785 5784 5781 5779 5776 5774 5771 5769 5766 5764 5762 5759 5756 5754 5752 5750 5747 5744 5742 5741 5739 5736 5734 5734 5733 5731 5728 5726 5724 5722 5720 5719 5718 5718 5717 5716 5716
5848 5847 5846 5846 5845 5842 5840 5840 5837 5834 5833 5833 5833 5832 5831 5832 5832 5832 5832 5831 5830 5829 5828 5827 5826 5825 5824 5823 5822 5821 5820 5818 5816 5814 5812 5810 5809 5807 5804 5801 5798 5795 5792 5790 5787 5785 5783 5782 5780 5778 5776 5773 5771 5768 5765 5763 5760 5758 5755 5752 5750 5748 5745 5743 5741 5739 5737 5735 5733 5730 5728 5727 5726 5725 5722 5720 5719 5717 5714 5712 5711 5710 5709 5708 5708
5845 5844 5842 5840 5839 5836 5834 5833 5832 5832 5831 5830 5828 5827 5826 5827 5828 5828 5827 5827 5826 5825 5823 5822 5821 5820 5820 5819 5818 5817 5816 5814 5812 5810 5808 5806 5804 5802 5799 5796 5793 5790 5787 5784 5782 5780 5778 5776 5774 5772 5769 5766 5764 5761 5759 5757 5754 5751 5748 5745 5743 5741 5739 5737 5734 5733 5732 5730 5728 5725 5722 5720 5719 5718 5716 5714 5713 5710 5708 5706 5705 5702 5701 5700 5699
5841 5840 5837 5836 5833 5831 5830 5829 5828 5828 5827 5825 5824 5823 5822 5822 5822 5822 5822 5822 5821 5820 5818 5817 5817 5816 5815 5815 5814 5813 5811 5809 5807 5805 5803 5801 5799 5797 5794 5791 5788 5785 5782 5779 5777 5775 5773 5771 5768 5765 5762 5759 5757 5755 5753 5751 5748 5744 5741 5738 5736 5734 5732 5730 5728 5727 5726 5724 5722 5720 5717 5715 5713 5712 5710 5708 5706 5704 5701 5700 5698 5695 5694 5693 5691
5837 5835 5833 5832 5829 5826 5825 5824 5822 5822 5821 5820 5819 5818 5817 5817 5816 5816 5818 5818 5816 5814 5813 5812 5811 5811 5810 5810 5809 5807 5805 5803 5802 5800 5798 5796 5793 5791 5789 5786 5783 5780 5777 5774 5771 5769 5767 5764 5762 5758 5755 5753 5751 5749 5747 5744 5742 5739 5735 5732 5730 5728 5726 5724 5723 5721 5719 5717 5715 5713 5711 5709 5707 5705 5703 5702 5700 5698 5695 5693 5691 5687 5686 5685 5683
5832 5830 5828 5827 5825 5822 5820 5819 5817 5815 5814 5814 5813 5812 5812 5811 5810 5811 5812 5812 5810 5809 5808 5807 5806 5806 5805 5805 5803 5802 5800 5798 5796 5794 5792 5790 5788 5786 5783 5781 5778 5775 5772 5769 5765 5762 5759 5757 5754 5751 5749 5747 5745 5743 5741 5739 5736 5733 5730 5727 5724 5722 5721 5719 5717 5715 5713 5711 5709 5707 5705 5704 5702 5700 5697 5695 5694 5692 5690 5688 5684 5680 5678 5675 5673
5828 5825 5823 5822 5821 5818 5816 5814 5812 5809 5807 5807 5806 5806 5807 5806 5805 5806 5807 5806 5805 5804 5803 5802 5801 5801 5800 5799 5798 5797 5795 5792 5790 5788 5786 5784 5782 5780 5778 5775 5773 5770 5766 5763 5759 5755 5751 5749 5747 5745 5743 5742 5739 5737 5735 5733 5730 5728 5725 5722 5720 5718 5715 5713 5711 5710 5708 5705 5703 5701 5699 5698 5696 5695 5692 5689 5687 5685 5684 5682 5679 5674 5670 5667 5664
5823 5820 5818 5817 5816 5814 5812 5811 5810 5807 5804 5802 5802 5802 5802 5802 5801 5803 5803 5802 5800 5799 5798 5797 5796 5796 5796 5794 5793 5791 5789 5786 5784 5782 5780 5778 5776 5774 5772 5770 5767 5764 5761 5758 5753 5749 5746 5743 5740 5738 5737 5736 5734 5732 5730 5727 5724 5722 5719 5717 5715 5713 5710 5708 5706 5704 5702 5700 5698 5695 5694 5692 5691 5690 5687 5684 5681 5679 5677 5675 5672 5667 5662 5658 5655
5818 5816 5814 5812 5810 5809 5808 5807 5806 5805 5802 5799 5797 5797 5797 5797 5798 5799 5799 5798 5796 5795 5793 5792 5791 5791 5790 5789 5788 5786 5784 5781 5779 5777 5775 5773 5771 5769 5767 5764 5761 5759 5756 5752 5749 5747 5744 5739 5735 5733 5732 5731 5729 5727 5724 5722 5719 5716 5713 5711 5709 5708 5706 5704 5702 5700 5697 5695 5693 5690 5688 5687 5685 5684 5682 5680 5677 5674 5671 5669 5665 5660 5655 5651 5647
5812 5810 5809 5807 5805 5804 5804 5802 5801 5800 5799 5796 5795 5794 5793 5792 5793 5794 5794 5793 5792 5790 5788 5787 5786 5785 5784 5784 5782 5780 5779 5777 5774 5772 5770 5768 5766 5764 5761 5757 5755 5754 5751 5748 5745 5743 5740 5736 5731 5729 5727 5726 5724 5722 5719 5717 5713 5710 5708 5705 5704 5703 5701 5699 5697 5695 5693 5690 5688 5686 5684 5682 5680 5679 5677 5675 5672 5669 5666 5664 5660 5654 5649 5645 5641
5805 5805 5804 5803 5800 5799 5799 5798 5796 5795 5794 5793 5792 5791 5790 5789 5789 5789 5789 5788 5786 5785 5784 5783 5782 5780 5779 5778 5777 5775 5773 5772 5770 5767 5765 5762 5760 5759 5756 5752 5750 5748 5746 5743 5741 5738 5735 5731 5728 5725 5723 5721 5719 5716 5714 5711 5708 5705 5702 5700 5698 5698 5696 5694 5692 5690 5688 5685 5684 5682 5680 5678 5676 5674 5672 5670 5668 5665 5663 5660 5656 5651 5645 5639 5635
5800 5799 5798 5797 5796 5794 5794 5793 5792 5789 5788 5786 5786 5786 5786 5786 5786 5785 5784 5782 5781 5781 5780 5779 5777 5776 5774 5773 5771 5770 5768 5767 5765 5762 5759 5756 5755 5754 5751 5748 5745 5742 5740 5737 5735 5732 5729 5726 5723 5721 5719 5716 5713 5710 5708 5705 5702 5700 5697 5694 5693 5692 5690 5688 5687 5685 5683 5680 5679 5677 5675 5673 5672 5669 5667 5665 5663 5661 5659 5657 5653 5648 5643 5637 5631
5795 5794 5793 5793 5791 5790 5788 5788 5787 5785 5782 5781 5781 5781 5781 5782 5782 5780 5779 5778 5778 5777 5776 5774 5772 5770 5769 5767 5766 5765 5763 5761 5759 5756 5753 5751 5749 5747 5745 5742 5739 5737 5734 5731 5729 5726 5724 5721 5718 5715 5713 5710 5707 5704 5701 5699 5696 5694 5691 5689 5688 5686 5684 5683 5681 5680 5678 5676 5674 5673 5671 5669 5667 5665 5663 5661 5659 5657 5656 5653 5649 5644 5640 5636 5630
5790 5789 5789 5788 5787 5785 5784 5783 5782 5780 5778 5777 5776 5776 5776 5776 5776 5775 5774 5774 5774 5772 5770 5769 5767 5765 5764 5762 5761 5760 5758 5756 5753 5750 5748 5745 5743 5741 5738 5736 5734 5731 5728 5725 5723 5720 5718 5715 5712 5709 5707 5704 5701 5698 5695 5693 5691 5688 5686 5684 5683 5681 5679 5677 5676 5675 5673 5672 5670 5669 5667 5664 5663 5661 5659 5658 5656 5654 5652 5650 5645 5640 5636 5631 5626
5785 5784 5783 5783 5782 5781 5780 5779 5778 5776 5775 5773 5772 5772 5771 5771 5771 5770 5770 5770 5769 5767 5765 5763 5762 5760 5759 5758 5756 5754 5752 5750 5747 5744 5742 5740 5738 5735 5732 5729 5727 5725 5722 5719 5717 5714 5712 5709 5706 5703 5701 5698 5696 5693 5690 5688 5686 5683 5681 5680 5678 5676 5674 5673 5671 5670 5669 5667 5666 5665 5663 5661 5659 5657 5655 5653 5652 5650 5649 5646 5642 5637 5631 5626 5621
5780 5779 5778 5778 5777 5776 5775 5774 5773 5772 5771 5770 5769 5768 5767 5767 5766 5766 5765 5764 5763 5761 5759 5757 5756 5755 5754 5753 5750 5748 5745 5743 5740 5738 5736 5734 5732 5729 5726 5723 5721 5719 5716 5714 5711 5709 5706 5704 5701 5698 5695 5693 5691 5689 5686 5684 5681 5679 5677 5675 5673 5671 5670 5668 5667 5666 5664 5663 5662 5661 5659 5657 5655 5653 5651 5649 5648 5646 5645 5643 5639 5634 5628 5622 5618
5775 5774 5774 5773 5772 5771 5770 5769 5768 5767 5766 5765 5764 5764 5763 5762 5761 5761 5760 5759 5757 5756 5754 5752 5751 5750 5748 5746 5743 5741 5738 5736 5734 5732 5730 5728 5726 5723 5720 5717 5714 5712 5710 5708 5706 5704 5701 5698 5696 5693 5690 5688 5686 5684 5682 5679 5677 5675 5672 5671 5669 5667 5665 5664 5663 5661 5660 5659 5658 5657 5655 5654 5652 5650 5648 5646 5644 5642 5640 5638 5635 5631 5625 5619 5613
5770 5770 5769 5768 5767 5766 5765 5764 5763 5761 5760 5759 5758 5758 5757 5757 5756 5755 5754 5753 5752 5751 5749 5747 5746 5744 5742 5739 5737 5735 5733 5730 5728 5727 5724 5722 5719 5716 5713 5711 5708 5705 5703 5702 5700 5698 5696 5693 5691 5689 5686 5683 5681 5680 5677 5675 5673 5670 5668 5666 5665 5663 5661 5660 5658 5657 5656 5656 5655 5654 5652 5651 5649 5647 5645 5643 5641 5639 5637 5634 5630 5626 5621 5615 5609
5765 5764 5763 5762 5761 5760 5759 5758 5757 5755 5753 5753 5752 5751 5750 5750 5750 5750 5749 5748 5747 5745 5744 5742 5739 5737 5735 5733 5731 5729 5727 5724 5722 5720 5718 5715 5712 5709 5707 5704 5702 5699 5698 5696 5694 5692 5689 5687 5685 5683 5681 5678 5677 5675 5673 5670 5668 5666 5664 5662 5661 5659 5657 5656 5654 5653 5653 5652 5652 5650 5649 5648 5646 5644 5642 5640 5638 5636 5633 5630 5627 5622 5618 5613 5607
5760 5758 5757 5755 5755 5754 5753 5752 5749 5748 5747 5747 5746 5746 5746 5746 5746 5745 5744 5743 5741 5739 5737 5735 5732 5730 5728 5726 5725 5723 5721 5719 5716 5714 5711 5709 5706 5703 5701 5698 5696 5694 5692 5691 5689 5686 5683 5681 5679 5677 5675 5673 5672 5670 5668 5666 5664 5662 5660 5658 5657 5655 5653 5652 5651 5650 5649 5649 5648 5647 5646 5645 5643 5641 5639 5637 5635 5633 5630 5627 5624 5619 5615 5611 5605
5755 5753 5751 5749 5749 5748 5747 5746 5744 5742 5742 5743 5743 5743 5743 5742 5741 5739 5738 5736 5734 5732 5730 5727 5725 5724 5722 5720 5719 5717 5715 5712 5710 5707 5704 5702 5700 5698 5695 5693 5690 5689 5687 5685 5683 5681 5678 5676 5674 5672 5670 5668 5667 5665 5664 5662 5660 5658 5657 5655 5653 5651 5649 5648 5647 5647 5646 5646 5645 5644 5643 5642 5640 5638 5637 5635 5633 5630 5628 5625 5621 5617 5612 5608 5604
5749 5747 5745 5743 5742 5742 5742 5741 5740 5739 5739 5739 5738 5738 5737 5735 5734 5732 5731 5728 5726 5724 5722 5721 5719 5717 5716 5714 5712 5710 5708 5706 5703 5700 5698 5696 5694 5692 5689 5687 5685 5684 5682 5680 5678 5676 5673 5671 5669 5667 5665 5663 5662 5661 5659 5657 5656 5654 5653 5651 5649 5647 5646 5645 5644 5644 5643 5643 5642 5641 5640 5639 5637 5635 5634 5632 5631 5628 5626 5623 5619 5615 5611 5606 5602
5744 5742 5740 5739 5737 5736 5736 5736 5735 5735 5734 5733 5732 5731 5730 5729 5727 5726 5723 5721 5719 5717 5716 5714 5713 5711 5710 5708 5706 5703 5701 5699 5696 5694 5692 5690 5688 5686 5684 5682 5681 5679 5677 5675 5672 5670 5669 5667 5665 5663 5661 5659 5657 5656 5655 5653 5652 5650 5649 5647 5646 5644 5643 5642 5641 5641 5640 5640 5639 5638 5637 5636 5634 5633 5631 5630 5628 5626 5624 5621 5618 5614 5609 5605 5602
5738 5737 5736 5734 5732 5730 5729 5729 5729 5728 5727 5726 5726 5725 5724 5723 5721 5719 5716 5714 5712 5711 5710 5708 5707 5705 5703 5701 5699 5696 5694 5692 5690 5687 5685 5684 5682 5680 5678 5677 5675 5673 5671 5669 5667 5665 5664 5662 5660 5658 5656 5655 5653 5652 5651 5650 5648 5646 5645 5644 5642 5641 5640 5639 5638 5638 5637 5637 5636 5635 5634 5633 5632 5630 5629 5627 5626 5624 5622 5619 5616 5612 5609 5605 5601
5731 5730 5729 5728 5727 5725 5724 5723 5722 5721 5720 5719 5718 5718 5716 5715 5713 5711 5709 5707 5706 5705 5703 5702 5700 5698 5696 5694 5692 5690 5687 5685 5683 5681 5679 5678 5676 5675 5673 5671 5670 5668 5666 5664 5662 5661 5659 5657 5655 5653 5652 5650 5649 5648 5647 5645 5644 5643 5641 5640 5639 5638 5637 5636 5635 5635 5634 5634 5633 5632 5632 5630 5629 5628 5627 5626 5624 5622 5619 5617 5614 5611 5608 5605 5601
5725 5724 5723 5722 5721 5720 5718 5717 5716 5714 5713 5712 5711 5710 5709 5707 5705 5704 5702 5701 5700 5698 5697 5695 5694 5692 5689 5687 5685 5683 5681 5679 5676 5675 5673 5672 5671 5669 5668 5666 5664 5662 5661 5659 5657 5656 5654 5653 5651 5649 5648 5646 5645 5644 5643 5641 5640 5639 5638 5637 5636 5635 5634 5633 5632 5632 5632 5631 5630 5630 5629 5628 5627 5626 5625 5624 5622 5620 5618 5616 5613 5611 5608 5604 5601
5717 5717 5716 5715 5714 5713 5712 5711 5709 5708 5707 5706 5705 5703 5702 5701 5699 5697 5696 5695 5694 5692 5690 5688 5687 5685 5683 5680 5678 5677 5674 5672 5671 5669 5668 5666 5665 5664 5662 5661 5659 5657 5656 5654 5653 5652 5650 5649 5647 5645 5644 5642 5641 5640 5639 5638 5637 5636 5635 5634 5633 5632 5632 5631 5630 5629 5629 5629 5628 5627 5627 5626 5625 5624 5623 5621 5620 5618 5617 5615 5613 5611 5608 5605 5601
5710 5709 5709 5708 5707 5706 5705 5704 5703 5702 5701 5700 5699 5697 5696 5694 5693 5692 5690 5689 5688 5686 5683 5682 5680 5679 5676 5674 5672 5670 5668 5666 5665 5663 5662 5661 5660 5659 5657 5656 5654 5653 5651 5650 5649 5647 5646 5644 5643 5641 5640 5638 5637 5636 5635 5634 5634 5633 5632 5631 5631 5630 5629 5628 5628 5627 5627 5626 5626 5625 5625 5624 5623 5622 5620 5619 5618 5617 5615 5613 5612 5610 5607 5605 5602
5703 5702 5702 5701 5700 5699 5698 5697 5696 5695 5694 5693 5692 5690 5689 5688 5687 5686 5684 5683 5681 5679 5677 5676 5674 5672 5670 5668 5666 5665 5663 5661 5659 5658 5657 5656 5655 5654 5652 5651 5649 5648 5647 5646 5644 5643 5642 5640 5639 5638 5636 5635 5634 5633 5632 5632 5631 5630 5629 5629 5628 5627 5627 5626 5625 5625 5624 5624 5623 5623 5622 5622 5621 5619 5618 5617 5616 5615 5614 5612 5611 5609 5607 5605 5602
5697 5696 5694 5693 5693 5692 5691 5690 5689 5688 5687 5686 5685 5684 5683 5682 5681 5680 5678 5676 5675 5673 5671 5670 5668 5666 5664 5662 5661 5659 5657 5655 5654 5653 5652 5651 5650 5648 5647 5646 5644 5643 5642 5641 5640 5639 5638 5637 5636 5635 5633 5632 5631 5630 5629 5629 5628 5627 5627 5626 5625 5624 5624 5623 5623 5622 5622 5622 5621 5621 5620 5619 5618 5617 5616 5615 5614 5613 5612 5611 5609 5608 5607 5605 5603
5690 5689 5687 5686 5685 5685 5684 5683 5682 5682 5681 5680 5679 5678 5677 5676 5675 5673 5672 5670 5668 5667 5665 5663 5662 5660 5658 5657 5655 5654 5652 5651 5650 5649 5647 5646 5644 5643 5642 5640 5639 5638 5637 5637 5636 5635 5634 5633 5632 5631 5630 5629 5628 5627 5626 5626 5625 5624 5623 5623 5622 5621 5621 5621 5620 5620 5620 5619 5619 5618 5617 5617 5616 5615 5614 5613 5613 5612 5611 5610 5608 5607 5606 5605 5603
5683 5682 5681 5680 5679 5678 5678 5677 5676 5675 5675 5674 5673 5672 5671 5670 5668 5667 5665 5664 5662 5661 5659 5657 5656 5654 5653 5651 5650 5649 5648 5647 5645 5644 5642 5641 5640 5638 5637 5636 5635 5634 5633 5632 5631 5630 5630 5629 5629 5627 5626 5625 5625 5624 5623 5623 5622 5621 5621 5620 5619 5619 5618 5618 5617 5617 5617 5617 5616 5615 5615 5614 5614 5613 5612 5611 5611 5610 5609 5608 5607 5606 5605 5604 5603
5677 5675 5675 5674 5673 5672 5671 5671 5670 5669 5668 5668 5667 5666 5665 5663 5662 5660 5659 5658 5656 5655 5653 5652 5651 5649 5648 5647 5646 5644 5643 5642 5640 5639 5638 5637 5635 5634 5633 5631 5630 5629 5629 5628 5627 5626 5626 5625 5625 5624 5623 5622 5621 5621 5620 5619 5619 5618 5618 5617 5617 5616 5616 5615 5615 5614 5614 5614 5613 5613 5612 5612 5611 5611 5610 5609 5609 5608 5608 5607 5606 5605 5604 5603 5603
5672 5669 5668 5667 5667 5666 5665 5664 5664 5663 5662 5661 5660 5659 5658 5657 5656 5654 5653 5652 5651 5650 5649 5647 5646 5645 5643 5642 5641 5640 5638 5637 5636 5634 5633 5632 5631 5630 5629 5627 5626 5625 5624 5624 5623 5622 5622 5621 5621 5620 5619 5618 5618 5617 5617 5616 5616 5616 5615 5615 5614 5614 5613 5612 5612 5611 5611 5611 5610 5610 5609 5609 5609 5608 5608 5607 5606 5606 5605 5605 5605 5604 5603 5602 5602
5666 5664 5662 5661 5660 5659 5658 5658 5657 5657 5656 5655 5654 5653 5652 5651 5650 5649 5648 5647 5646 5645 5644 5643 5642 5640 5639 5637 5636 5634 5633 5632 5631 5630 5629 5628 5627 5626 5625 5623 5622 5621 5620 5619 5619 5618 5618 5617 5617 5616 5615 5615 5614 5614 5613 5613 5613 5612 5612 5612 5611 5611 5610 5610 5609 5608 5608 5608 5608 5607 5607 5606 5606 5606 5605 5605 5604 5604 5603 5603 5603 5602 5601 5600 5600
5660 5658 5657 5656 5655 5653 5653 5652 5651 5651 5650 5650 5649 5648 5647 5646 5645 5645 5644 5643 5642 5641 5640 5639 5637 5635 5634 5632 5631 5630 5629 5627 5626 5625 5625 5624 5623 5622 5621 5619 5618 5617 5616 5615 5615 5615 5614 5614 5613 5612 5612 5611 5611 5610 5610 5610 5609 5609 5609 5608 5608 5607 5607 5607 5606 5606 5605 5605 5605 5604 5604 5603 5603 5603 5603 5602 5602 5601 5601 5601 5600 5600 5600 5599 5598
5653 5652 5651 5650 5649 5648 5647 5646 5646 5646 5646 5645 5644 5644 5643 5642 5641 5640 5639 5639 5638 5637 5635 5634 5632 5631 5629 5628 5626 5625 5624 5623 5622 5621 5620 5620 5619 5618 5617 5615 5614 5613 5612 5612 5611 5611 5611 5610 5609 5609 5608 5608 5607 5607 5607 5606 5606 5605 5605 5605 5604 5604 5603 5603 5603 5603 5602 5602 5601 5601 5601 5600 5600 5599 5599 5599 5599 5599 5598 5598 5598 5598 5598 5597 5597
5647 5646 5645 5644 5643 5642 5642 5641 5641 5641 5641 5640 5640 5639 5638 5637 5636 5636 5635 5634 5633 5632 5631 5629 5627 5626 5625 5623 5622 5621 5619 5618 5617 5616 5616 5615 5615 5614 5613 5612 5611 5610 5609 5608 5608 5608 5608 5607 5606 5605 5605 5604 5604 5603 5603 5603 5602 5602 5601 5601 5600 5600 5600 5599 5599 5599 5599 5598 5598 5598 5597 5597 5597 5596 5596 5596 5596 5596 5596 5596 5596 5596 5596 5595 5595
5641 5640 5639 5638 5637 5637 5637 5637 5637 5637 5636 5636 5635 5634 5634 5633 5632 5631 5631 5630 5628 5627 5626 5624 5623 5622 5621 5619 5618 5616 5615 5614 5612 5611 5611 5611 5611 5610 5609 5608 5607 5606 5606 5605 5605 5605 5604 5603 5603 5602 5601 5601 5600 5600 5600 5599 5598 5598 5597 5597 5596 5596 5596 5595 5595 5595 5594 5594 5594 5594 5594 5594 5593 5593 5593 5592 5592 5592 5593 5593 5593 5593 5593 5593 5593
5636 5635 5634 5634 5633 5633 5633 5632 5632 5632 5632 5631 5631 5630 5629 5629 5628 5627 5626 5625 5624 5623 5621 5620 5619 5618 5617 5615 5613 5612 5610 5609 5608 5607 5606 5607 5607 5606 5605 5604 5603 5603 5602 5602 5602 5601 5601 5600 5599 5598 5598 5597 5597 5597 5596 5595 5595 5594 5593 5593 5592 5592 5592 5592 5591 5591 5590 5590 5590 5590 5590 5589 5590 5590 5589 5589 5589 5589 5589 5590 5590 5590 5590 5590 5591
5632 5631 5630 5629 5629 5628 5628 5628 5628 5627 5627 5627 5626 5626 5625 5624 5623 5622 5621 5621 5619 5619 5618 5617 5616 5615 5613 5611 5609 5608 5606 5605 5603 5602 5602 5602 5602 5602 5601 5600 5600 5599 5598 5598 5598 5598 5597 5596 5595 5595 5594 5594 5593 5593 5592 5592 5591 5590 5590 5589 5589 5588 5588 5588 5588 5587 5587 5586 5586 5586 5586 5586 5586 5586 5586 5586 5586 5586 5586 5586 5587 5587 5587 5588 5588